Hundvaag 1 weather for Aug 1997
Month no. 122
Obs.
Da.
Temp. Dew Point Precip. Wind
Speed
Wind gusts Cloud cover Press. Humidity Wind dir. Sunny OPT
01.08.1997 15,3   0,0     10       1  
02.08.1997 14,3   5,0     8       1  
03.08.1997 16,4   0,0     9       1  
04.08.1997 14,4   0,0     10       1  
05.08.1997 14,6   0,0     10       1  
06.08.1997 16,3   0,0     8       1  
07.08.1997 16,0   0,0     10       1  
08.08.1997 16,8   0,0     10       1  
09.08.1997 21,9   0,0     3          
10.08.1997 17,1   6,0     1          
11.08.1997 16,5   0,0     10       1  
12.08.1997 18,1   0,0     10       1  
13.08.1997 16,5   0,0     10       1  
14.08.1997 17,6   0,0     10       1  
15.08.1997 17,9   0,0     10       1  
16.08.1997 16,9   0,0     10       1  
17.08.1997 20,7   0,0     9       1  
18.08.1997 15,3   0,0     8       1  
19.08.1997 15,3   0,0     0          
20.08.1997 16,0   0,0     10       1  
21.08.1997 18,0   0,0     10       1  
22.08.1997 17,3   27,0     0          
23.08.1997 17,8   5,0     7       1  
24.08.1997 14,3   27,0     1          
25.08.1997 13,9   0,0     4          
26.08.1997 13,7   26,0     8       1  
27.08.1997 11,8   0,0     10       1  
28.08.1997 19,7   0,0     0          
29.08.1997 15,7   67,0     0          
30.08.1997 15,6   10,0     0          
31.08.1997 15,8   4,0     8       1  
Avrg/Sum 16,4   177,0     6,9       22